FW1825 Weather Reports


Display with metric or nautical units.
time (UTC)temp
F
wind
direction
speed
MPH
gust
MPH
rain 1hr
in
rain 24hr
in
rain mn
in
humidity
%
barometer
mb
20260504185420 66 223 7.0 14.0 0.00 0.00 0.00 46 1007.2
20260504184920 67 225 8.0 20.0 0.00 0.00 0.00 47 1007.4
20260504184417 68 219 10.0 20.0 0.00 0.00 0.00 50 1007.5
20260504183916 66 240 12.0 21.0 0.00 0.00 0.00 47 1007.3
20260504183638 68 257 12.0 21.0 0.00 0.00 0.00 46 1007.5
20260504182917 68 240 12.0 23.0 0.00 0.00 0.00 47 1007.7
20260504182417 68 243 13.0 24.0 0.00 0.00 0.00 49 1007.6
20260504181917 68 254 12.0 24.0 0.00 0.00 0.00 47 1007.5
20260504181416 67 246 13.0 23.0 0.00 0.00 0.00 52 1007.5
20260504181137 67 230 15.0 23.0 0.00 0.00 0.00 47 1007.6
20260504180418 67 231 15.0 23.0 0.00 0.00 0.00 48 1007.7
20260504175919 67 197 13.0 23.0 0.00 0.00 0.00 48 1007.8
20260504175418 67 242 11.0 21.0 0.00 0.00 0.00 52 1007.5
20260504174918 67 234 14.0 22.0 0.00 0.00 0.00 52 1007.7
20260504174417 64 257 15.0 22.0 0.00 0.00 0.00 48 1007.5
20260504173917 65 251 14.0 24.0 0.00 0.00 0.00 53 1007.8
20260504173417 66 208 13.0 24.0 0.00 0.00 0.00 50 1007.8
20260504172913 67 234 10.0 21.0 0.00 0.00 0.00 51 1007.8
20260504172411 67 220 11.0 21.0 0.00 0.00 0.00 52 1007.9
20260504172129 66 227 13.0 22.0 0.00 0.00 0.00 51 1007.8
20260504171636 65 242 14.0 23.0 0.00 0.00 0.00 54 1007.7
20260504170910 64 213 15.0 23.0 0.00 0.00 0.00 51 1007.7
20260504170413 65 233 14.0 24.0 0.00 0.00 0.00 52 1007.8
20260504160358 62 162 6.0 16.0 0.00 0.00 0.00 58 1008.1
20260504150854 59 190 7.0 18.0 0.00 0.00 0.00 56 1008.4
20260504150354 59 181 9.0 19.0 0.00 0.00 0.00 56 1008.5
20260504140846 57 224 6.0 14.0 0.00 0.00 0.00 56 1008.5
20260504140345 56 221 6.0 13.0 0.00 0.00 0.00 58 1008.6
20260504130603 50 182 4.0 9.0 0.00 0.00 0.00 62 1008.5
20260504120315 48 212 8.0 20.0 0.00 0.00 0.00 61 1008.6
20260504110240 47 166 5.0 13.0 0.00 0.00 0.00 63 1008.7
20260504100454 44 141 4.0 8.0 0.00 0.00 0.00 65 1008.6
20260504081708 47 228 5.0 12.0 0.00 0.00 0.00 61 1009.0
20260504081208 47 234 5.0 13.0 0.00 0.00 0.00 61 1008.9
20260504081153 47 207 6.0 13.0 0.00 0.00 0.00 61 1008.9
20260504080210 48 234 6.0 12.0 0.00 0.00 0.00 60 1008.9
20260504070209 47 211 5.0 10.0 0.00 0.00 0.00 61 1009.0
20260504060203 47 226 3.0 6.0 0.00 0.00 0.00 60 1009.1
20260504050643 48 165 6.0 10.0 0.00 0.00 0.00 58 1009.1
20260504050140 48 167 5.0 10.0 0.00 0.00 0.00 57 1009.2
20260504045641 48 158 5.0 9.0 0.00 0.00 0.00 57 1009.2
20260504045140 49 167 4.0 9.0 0.00 0.00 0.00 56 1009.2
20260504044639 49 161 4.0 6.0 0.00 0.00 0.00 57 1009.2
20260504044137 49 155 4.0 8.0 0.00 0.00 0.00 56 1009.1
20260504043634 49 166 4.0 8.0 0.00 0.00 0.00 55 1009.1
20260504043135 49 160 3.0 6.0 0.00 0.00 0.00 56 1009.1
20260504042634 49 171 3.0 6.0 0.00 0.00 0.00 57 1009.1
20260504042133 49 171 3.0 6.0 0.00 0.00 0.00 55 1009.1
20260504041634 49 173 3.0 6.0 0.00 0.00 0.00 56 1009.1
20260504041131 49 180 2.0 5.0 0.00 0.00 0.00 56 1009.2
20260504040632 49 182 2.0 5.0 0.00 0.00 0.00 55 1009.1
20260504040132 50 188 3.0 5.0 0.00 0.00 0.00 56 1009.2
20260504035633 50 181 2.0 5.0 0.00 0.00 0.00 57 1009.2
20260504035132 50 184 1.0 5.0 0.00 0.00 0.00 56 1009.2
20260504034853 49 238 1.0 3.0 0.00 0.00 0.00 57 1009.2
20260504034349 49 238 0.0 3.0 0.00 0.00 0.00 57 1009.2
20260504033629 49 254 0.0 2.0 0.00 0.00 0.00 58 1009.2
20260504033122 49 254 0.0 0.0 0.00 0.00 0.00 58 1009.2
20260504032617 49 254 0.0 0.0 0.00 0.00 0.00 60 1009.2
20260504032111 49 254 0.0 0.0 0.00 0.00 0.00 57 1009.3
20260504031613 49 254 0.0 1.0 0.00 0.00 0.00 57 1009.3
20260504031110 49 254 0.0 2.0 0.00 0.00 0.00 56 1009.4
20260504030830 49 254 0.0 2.0 0.00 0.00 0.00 56 1009.4
20260504025604 50 254 1.0 3.0 0.00 0.00 0.00 56 1009.5
20260504025104 50 254 1.0 3.0 0.00 0.00 0.00 56 1009.5
20260504024603 50 254 1.0 3.0 0.00 0.00 0.00 57 1009.6
20260504024102 50 254 1.0 4.0 0.00 0.00 0.00 57 1009.5
20260504023559 50 253 2.0 4.0 0.00 0.00 0.00 57 1009.7
20260504023058 50 252 3.0 6.0 0.00 0.00 0.00 57 1009.7
20260504022558 50 252 4.0 9.0 0.00 0.00 0.00 57 1009.7
20260504022059 50 251 5.0 9.0 0.00 0.00 0.00 57 1009.7
20260504021557 50 250 5.0 8.0 0.00 0.00 0.00 58 1009.7
20260504021320 50 257 6.0 12.0 0.00 0.00 0.00 57 1009.7
20260504020558 50 265 8.0 12.0 0.00 0.00 0.00 57 1009.6
20260504020055 50 245 8.0 12.0 0.00 0.00 0.00 56 1009.7
20260504015557 50 257 8.0 15.0 0.00 0.00 0.00 57 1009.7
20260504015056 51 262 10.0 17.0 0.00 0.00 0.00 56 1009.6
20260504014822 51 242 12.0 17.0 0.00 0.00 0.00 55 1009.6
20260504014055 51 221 12.0 22.0 0.00 0.00 0.00 55 1009.5
20260504013553 50 254 11.0 22.0 0.00 0.00 0.00 56 1009.5
20260504013053 50 258 12.0 28.0 0.00 0.00 0.00 57 1009.7
20260504012554 50 261 16.0 29.0 0.00 0.00 0.00 56 1009.9
20260504012053 51 259 14.0 26.0 0.00 0.00 0.00 55 1009.9
20260504011553 51 263 10.0 19.0 0.00 0.00 0.00 54 1009.6
20260504011054 51 278 6.0 14.0 0.00 0.00 0.00 54 1009.6
20260504010821 51 252 5.0 11.0 0.00 0.00 0.00 54 1009.3
20260504010053 51 241 6.0 16.0 0.00 0.00 0.00 55 1009.3
20260504005554 51 224 9.0 16.0 0.00 0.00 0.00 54 1009.5
20260504005546 51 221 11.0 16.0 0.00 0.00 0.00 54 1009.7
20260504004553 51 279 9.0 16.0 0.00 0.00 0.00 54 1009.2
20260504004054 51 283 7.0 13.0 0.00 0.00 0.00 55 1009.5
20260504003553 51 241 8.0 15.0 0.00 0.00 0.00 54 1009.3
20260504003053 50 240 6.0 15.0 0.00 0.00 0.00 55 1009.3
20260504002822 50 266 3.0 7.0 0.00 0.00 0.00 58 1009.2
20260504002056 50 256 4.0 9.0 0.00 0.00 0.00 59 1009.2
20260504001552 50 288 7.0 18.0 0.00 0.00 0.00 58 1009.1
20260504001046 50 314 11.0 18.0 0.00 0.00 0.00 56 1009.3
20260504000538 51 275 14.0 24.0 0.00 0.00 0.00 56 1009.4
20260504000032 51 298 16.0 24.0 0.00 0.00 0.00 55 1009.4
20260503235529 50 256 16.0 24.0 0.00 0.00 0.00 56 1009.2
20260503235027 50 255 17.0 29.0 0.00 0.00 0.00 59 1009.6
20260503234747 51 293 14.0 29.0 0.00 0.00 0.00 56 1009.5
20260503234027 51 294 6.0 17.0 0.00 0.00 0.00 56 1009.4
20260503233751 51 288 3.0 8.0 0.00 0.00 0.00 57 1009.2
20260503233027 51 329 4.0 13.0 0.00 0.00 0.00 57 1009.0
20260503232528 51 294 5.0 13.0 0.00 0.00 0.00 55 1008.9
20260503232027 51 236 4.0 8.0 0.00 0.00 0.00 55 1008.6
20260503231527 51 251 4.0 8.0 0.00 0.00 0.00 55 1008.6
20260503231027 51 249 4.0 8.0 0.00 0.00 0.00 55 1008.5
20260503230748 51 236 5.0 8.0 0.00 0.00 0.00 54 1008.5
20260503230027 51 234 5.0 8.0 0.00 0.00 0.00 52 1008.4
20260503225528 51 263 4.0 8.0 0.00 0.00 0.00 53 1008.4
20260503225027 52 230 4.0 8.0 0.00 0.00 0.00 53 1008.3
20260503224527 53 252 3.0 6.0 0.00 0.00 0.00 57 1008.4
20260503224027 52 247 5.0 9.0 0.00 0.00 0.00 56 1008.4
20260503223526 52 261 6.0 9.0 0.00 0.00 0.00 55 1008.3
20260503223026 52 263 5.0 8.0 0.00 0.00 0.00 53 1008.4
20260503223006 52 254 6.0 9.0 0.00 0.00 0.00 52 1008.4
20260503222014 52 278 8.0 15.0 0.00 0.00 0.00 53 1008.5
20260503221508 53 240 9.0 15.0 0.00 0.00 0.00 51 1008.5
20260503221225 53 259 8.0 13.0 0.00 0.00 0.00 53 1008.7
20260503220455 53 252 10.0 16.0 0.00 0.00 0.00 52 1008.6
20260503220214 52 252 11.0 16.0 0.00 0.00 0.00 52 1008.6
20260503215454 53 250 11.0 15.0 0.00 0.00 0.00 52 1008.7
20260503214953 53 264 11.0 16.0 0.00 0.00 0.00 54 1008.9
20260503214453 53 262 9.0 16.0 0.00 0.00 0.00 51 1008.7
20260503213953 53 250 9.0 18.0 0.00 0.00 0.00 53 1008.7
20260503213453 53 294 12.0 19.0 0.00 0.00 0.00 51 1008.9
20260503212953 53 244 12.0 19.0 0.00 0.00 0.00 53 1008.7
20260503212453 53 274 13.0 24.0 0.00 0.00 0.00 55 1008.9
20260503211953 53 252 14.0 24.0 0.00 0.00 0.00 50 1008.7
20260503211453 53 261 13.0 19.0 0.00 0.00 0.00 52 1008.7
20260503211210 53 250 12.0 18.0 0.00 0.00 0.00 52 1008.6
20260503210454 52 292 12.0 18.0 0.00 0.00 0.00 54 1008.7
20260503210435 52 292 11.0 18.0 0.00 0.00 0.00 55 1008.7
20260503205453 51 275 11.0 18.0 0.00 0.00 0.00 56 1008.9
20260503204954 51 256 12.0 21.0 0.00 0.00 0.00 54 1009.9
20260503204454 51 269 13.0 21.0 0.00 0.00 0.00 55 1009.9
20260503203954 51 274 14.0 24.0 0.00 0.00 0.00 54 1009.9
20260503203452 51 275 13.0 24.0 0.00 0.00 0.00 54 1010.0
20260503202953 51 290 13.0 21.0 0.00 0.00 0.00 58 1010.2
20260503202450 50 275 14.0 24.0 0.00 0.00 0.00 54 1010.0
20260503201949 50 291 14.0 24.0 0.00 0.00 0.00 53 1010.1
20260503201449 51 256 10.0 18.0 0.00 0.00 0.00 53 1010.1
20260503200950 51 282 11.0 21.0 0.00 0.00 0.00 55 1010.2
20260503200449 52 284 14.0 23.0 0.00 0.00 0.00 53 1010.3
20260503195948 53 296 14.0 23.0 0.00 0.00 0.00 55 1010.4
20260503195450 52 272 12.0 18.0 0.00 0.00 0.00 57 1010.4
20260503194948 52 255 12.0 19.0 0.00 0.00 0.00 58 1010.5
20260503194449 51 282 12.0 19.0 0.00 0.00 0.00 54 1010.5
20260503193949 50 289 11.0 19.0 0.00 0.00 0.00 57 1010.5
20260503193449 50 256 11.0 17.0 0.00 0.00 0.00 55 1010.6
20260503192949 50 284 11.0 18.0 0.00 0.00 0.00 55 1010.6
20260503192450 50 315 12.0 18.0 0.00 0.00 0.00 54 1010.7
20260503191950 50 276 14.0 21.0 0.00 0.00 0.00 54 1010.8
20260503191712 50 267 14.0 22.0 0.00 0.00 0.00 54 1010.8
20260503190950 50 276 15.0 25.0 0.00 0.00 0.00 55 1010.7
20260503190449 50 271 15.0 25.0 0.00 0.00 0.00 53 1010.9
20260503185948 52 313 11.0 22.0 0.00 0.00 0.00 50 1010.9